Location: Banff
(51.1667°N, 115.5667°W)
Time: 06:51:17
(UTC+00:00)

S-56A Canister/Altair - Pass Details

Date: 04 December 2020
Orbit: 633 x 2499 km, 38.9° (Epoch: 21 January)

Event Time Altitude Azimuth Distance (km) Brightness Sun altitude
Rises 02:55:23 0° 243° (WSW) 5,870 12.9 -30.0°
Reaches altitude 10° 02:59:52 10° 237° (WSW) 4,648 12.1 -30.7°
Maximum altitude 03:10:47 39° 176° (S) 2,323 9.8 -32.5°
Enters shadow 03:11:58 38° 161° (SSE) 2,287 9.6 -32.6°
Drops below altitude 10° 03:18:29 10° 111° (ESE) 3,279 - -33.7°
Sets 03:21:05 0° 103° (ESE) 4,017 - -34.1°
